Tracking 25709 objects as of 23-May-2022
HD Live streaming from Space Station
objects crossing your sky now

COSMOS 1375 DEB

Track COSMOS 1375 DEB now!
10-day predictions


NORAD ID: 17803
Int'l Code: 1982-055AV
Perigee: 933.8 km
Apogee: 1,009.9 km
Inclination: 65.8 °
Period: 104.4 minutes
Semi major axis: 7342 km
RCS: 0.014 m2 (small)
Launch date: June 6, 1982
Source: Commonwealth of Independent States (former USSR) (CIS)
Launch site: PLESETSK MISSILE AND SPACE COMPLEX (PKMTR)

Note: This is SATELLITE DEBRIS
aabbcc
Your satellite tracking list
Your tracking list is empty




NASA's NSSDC Master Catalog

Two Line Element Set (TLE):
1 17803U 82055AV  22142.87335885  .00000253  00000-0  32010-3 0  9996
2 17803  65.8328 333.7207 0051842 248.4114 220.9449 13.79760169838741
Source of the keplerian elements: AFSPC